When you browse on this site, cookies collect data to enhance your experience and personalize the content and advertising you see.
Visit our Privacy Policy to learn more. By continuing to use the site, you agree to this use of cookies and data.
  • In United Kingdom
  • List of Countries
  • For 7 days
  • Water Temperature
  • Weather Map
  • Weather Widgets
  • user-avatar
    Login

    Hourly Weather Kakanj

    Today, 26 January, Sunday

    Time Temperature Precipitation Wind Pressure Humidity
    00:00 +5°C° 0 mm 1 mps 727 mmHg 93%
    01:00 +5°C° 0 mm 1 mps 727 mmHg 93%
    02:00 +5°C° 0 mm 1 mps 726 mmHg 93%
    03:00 +5°C° 0 mm 1 mps 726 mmHg 93%
    04:00 +5°C° 0 mm 1 mps 726 mmHg 93%
    05:00 +5°C° 0 mm 1 mps 726 mmHg 93%
    06:00 +5°C° 0 mm 1 mps 726 mmHg 93%
    07:00 +5°C° 0 mm 1 mps 725 mmHg 93%
    08:00 +6°C° 0 mm 1 mps 726 mmHg 91%
    09:00 +7°C° 0 mm 1 mps 726 mmHg 89%
    10:00 +8°C° 0 mm 1 mps 726 mmHg 86%
    11:00 +8°C° 0.2 mm 1 mps 726 mmHg 87%
    12:00 +8°C° 0.2 mm 1 mps 725 mmHg 88%
    13:00 +8°C° 0.2 mm 1 mps 725 mmHg 89%
    14:00 +8°C° 0.3 mm 1 mps 724 mmHg 91%
    15:00 +7°C° 0.3 mm 0 mps 724 mmHg 93%
    16:00 +6°C° 0.3 mm 0 mps 724 mmHg 94%
    17:00 +6°C° 0.9 mm 0 mps 724 mmHg 95%
    18:00 +6°C° 0.9 mm 0 mps 723 mmHg 96%
    19:00 +7°C° 0.9 mm 1 mps 723 mmHg 97%
    20:00 +7°C° 0.8 mm 1 mps 723 mmHg 97%
    21:00 +6°C° 0.8 mm 1 mps 723 mmHg 97%
    22:00 +6°C° 0.8 mm 1 mps 723 mmHg 97%
    23:00 +6°C° 0.1 mm 1 mps 723 mmHg 97%

    Tomorrow, 27 January, Monday

    Time Temperature Precipitation Wind Pressure Humidity
    00:00 +5°C° 0.1 mm 0 mps 723 mmHg 96%
    01:00 +5°C° 0.1 mm 0 mps 723 mmHg 96%
    02:00 +4°C° 0 mm 0 mps 723 mmHg 96%
    03:00 +4°C° 0 mm 0 mps 722 mmHg 96%
    04:00 +4°C° 0 mm 0 mps 722 mmHg 95%
    05:00 +4°C° 0.1 mm 0 mps 722 mmHg 95%
    06:00 +4°C° 0.1 mm 0 mps 723 mmHg 95%
    07:00 +4°C° 0.1 mm 0 mps 723 mmHg 95%
    08:00 +5°C° 0 mm 0 mps 723 mmHg 94%
    09:00 +5°C° 0 mm 0 mps 723 mmHg 92%
    10:00 +6°C° 0 mm 0 mps 724 mmHg 91%
    11:00 +7°C° 0 mm 0 mps 723 mmHg 89%
    12:00 +7°C° 0 mm 0 mps 723 mmHg 86%
    13:00 +8°C° 0 mm 0 mps 723 mmHg 84%
    14:00 +8°C° 0 mm 0 mps 723 mmHg 85%
    15:00 +7°C° 0 mm 0 mps 723 mmHg 86%
    16:00 +7°C° 0 mm 0 mps 723 mmHg 87%
    17:00 +6°C° 0 mm 0 mps 723 mmHg 89%
    18:00 +5°C° 0 mm 0 mps 723 mmHg 91%
    19:00 +4°C° 0 mm 0 mps 723 mmHg 93%
    20:00 +5°C° 0 mm 1 mps 723 mmHg 93%
    21:00 +5°C° 0 mm 1 mps 723 mmHg 92%
    22:00 +5°C° 0 mm 1 mps 723 mmHg 92%
    23:00 +4°C° 0 mm 1 mps 722 mmHg 92%

    Day after tomorrow, 28 January, Tuesday

    Time Temperature Precipitation Wind Pressure Humidity
    00:00 +4°C° 0 mm 1 mps 722 mmHg 92%
    01:00 +4°C° 0 mm 1 mps 722 mmHg 92%
    02:00 +3°C° 0 mm 2 mps 721 mmHg 92%
    03:00 +3°C° 0 mm 2 mps 721 mmHg 92%
    04:00 +3°C° 0 mm 2 mps 721 mmHg 92%
    05:00 +3°C° 0 mm 2 mps 720 mmHg 91%
    06:00 +3°C° 0 mm 2 mps 720 mmHg 91%
    07:00 +3°C° 0 mm 2 mps 720 mmHg 90%
    08:00 +5°C° 0 mm 2 mps 720 mmHg 87%
    09:00 +5°C° 0 mm 3 mps 720 mmHg 84%
    10:00 +7°C° 0 mm 3 mps 719 mmHg 81%
    11:00 +7°C° 0 mm 3 mps 719 mmHg 81%
    12:00 +7°C° 0 mm 4 mps 718 mmHg 80%
    13:00 +7°C° 0 mm 4 mps 717 mmHg 79%
    14:00 +7°C° 0.1 mm 4 mps 716 mmHg 82%
    15:00 +7°C° 0.1 mm 4 mps 715 mmHg 84%
    16:00 +7°C° 0.1 mm 3 mps 715 mmHg 86%
    17:00 +7°C° 0.2 mm 3 mps 714 mmHg 88%
    18:00 +7°C° 0.2 mm 3 mps 714 mmHg 89%
    19:00 +7°C° 0.2 mm 3 mps 714 mmHg 91%
    20:00 +7°C° 0.9 mm 3 mps 714 mmHg 89%
    21:00 +5°C° 0.9 mm 4 mps 714 mmHg 87%
    22:00 +5°C° 0.9 mm 4 mps 714 mmHg 85%
    23:00 +4°C° 1.4 mm 3 mps 714 mmHg 89%

    29 January, Wednesday

    Time Temperature Precipitation Wind Pressure Humidity
    00:00 +3°C° 1.4 mm 3 mps 715 mmHg 93%
    01:00 +3°C° 1.4 mm 2 mps 715 mmHg 96%
    02:00 +3°C° 0.5 mm 2 mps 715 mmHg 96%
    03:00 +3°C° 0.5 mm 1 mps 716 mmHg 96%
    04:00 +3°C° 0.5 mm 1 mps 716 mmHg 96%
    05:00 +2°C° 0.2 mm 1 mps 717 mmHg 95%
    06:00 +2°C° 0.2 mm 1 mps 717 mmHg 94%
    07:00 -1°C° 0.2 mm 2 mps 717 mmHg 93%
    08:00 +2°C° 0 mm 2 mps 717 mmHg 87%
    09:00 +3°C° 0 mm 2 mps 718 mmHg 80%
    10:00 +4°C° 0 mm 2 mps 718 mmHg 74%
    11:00 +4°C° 0 mm 3 mps 717 mmHg 69%
    12:00 +5°C° 0 mm 3 mps 717 mmHg 64%
    13:00 +6°C° 0 mm 4 mps 717 mmHg 59%
    14:00 +6°C° 0 mm 4 mps 717 mmHg 65%
    15:00 +5°C° 0 mm 3 mps 717 mmHg 71%
    16:00 +5°C° 0 mm 3 mps 717 mmHg 78%
    17:00 +4°C° 0.3 mm 3 mps 717 mmHg 83%
    18:00 +4°C° 0.3 mm 2 mps 718 mmHg 88%
    19:00 +3°C° 0.3 mm 2 mps 718 mmHg 93%
    20:00 +4°C° 0.2 mm 1 mps 719 mmHg 93%
    21:00 +3°C° 0.2 mm 1 mps 719 mmHg 93%
    22:00 +3°C° 0.2 mm 1 mps 720 mmHg 93%
    23:00 +3°C° 0 mm 1 mps 720 mmHg 94%

    30 January, Thursday

    Time Temperature Precipitation Wind Pressure Humidity
    00:00 +3°C° 0 mm 1 mps 720 mmHg 94%
    01:00 +2°C° 0 mm 0 mps 720 mmHg 94%
    02:00 +2°C° 0 mm 0 mps 720 mmHg 94%
    03:00 +1°C° 0 mm 0 mps 720 mmHg 93%
    04:00 +1°C° 0 mm 0 mps 720 mmHg 92%
    05:00 +1°C° 0 mm 0 mps 721 mmHg 91%
    06:00 +2°C° 0 mm 0 mps 721 mmHg 90%
    07:00 +2°C° 0 mm 0 mps 722 mmHg 89%
    08:00 +4°C° 0.1 mm 1 mps 722 mmHg 80%
    09:00 +5°C° 0.1 mm 1 mps 723 mmHg 72%
    10:00 +5°C° 0.1 mm 1 mps 723 mmHg 64%
    11:00 +5°C° 0 mm 2 mps 723 mmHg 60%
    12:00 +5°C° 0 mm 2 mps 724 mmHg 55%
    13:00 +4°C° 0 mm 3 mps 724 mmHg 51%
    14:00 +4°C° 0 mm 2 mps 724 mmHg 56%
    15:00 +5°C° 0 mm 1 mps 724 mmHg 60%
    16:00 +5°C° 0 mm 1 mps 724 mmHg 65%
    17:00 +3°C° 0 mm 1 mps 725 mmHg 67%
    18:00 +2°C° 0 mm 1 mps 725 mmHg 68%
    19:00 +1°C° 0 mm 1 mps 725 mmHg 70%
    20:00 +1°C° 0 mm 1 mps 726 mmHg 69%
    21:00 +1°C° 0 mm 1 mps 726 mmHg 69%
    22:00 +1°C° 0 mm 1 mps 726 mmHg 68%
    23:00 +1°C° 0 mm 1 mps 726 mmHg 67%

    31 January, Friday

    Time Temperature Precipitation Wind Pressure Humidity
    00:00 +1°C° 0 mm 1 mps 726 mmHg 67%
    01:00 +1°C° 0 mm 1 mps 726 mmHg 66%
    02:00 +1°C° 0 mm 1 mps 726 mmHg 65%
    03:00 +2°C° 0 mm 1 mps 725 mmHg 63%
    04:00 +2°C° 0 mm 1 mps 725 mmHg 62%
    05:00 +2°C° 0 mm 1 mps 725 mmHg 61%
    06:00 +1°C° 0 mm 1 mps 725 mmHg 60%
    07:00 +1°C° 0 mm 1 mps 725 mmHg 59%
    08:00 +3°C° 0 mm 1 mps 726 mmHg 56%
    09:00 +4°C° 0 mm 1 mps 726 mmHg 52%
    10:00 +5°C° 0 mm 1 mps 726 mmHg 49%
    11:00 +6°C° 0 mm 1 mps 726 mmHg 48%
    12:00 +7°C° 0 mm 1 mps 725 mmHg 47%
    13:00 +8°C° 0 mm 1 mps 725 mmHg 46%
    14:00 +7°C° 0 mm 1 mps 725 mmHg 51%
    15:00 +7°C° 0 mm 1 mps 725 mmHg 56%
    16:00 +6°C° 0 mm 1 mps 725 mmHg 60%
    17:00 +5°C° 0 mm 1 mps 725 mmHg 63%
    18:00 +4°C° 0 mm 1 mps 725 mmHg 66%
    19:00 +3°C° 0 mm 1 mps 725 mmHg 69%
    20:00 +3°C° 0 mm 1 mps 725 mmHg 69%
    21:00 +2°C° 0 mm 1 mps 726 mmHg 69%
    22:00 +2°C° 0 mm 1 mps 726 mmHg 69%
    23:00 +2°C° 0 mm 1 mps 726 mmHg 68%
    Show more